EW2670 Weather Reports


time (UTC)temp
C
wind
direction
speed
KPH
gust
KPH
rain 1hr
cm
rain 24hr
cm
rain mn
cm
humidity
%
barometer
mb
20260906222058 29 135 4.8 8.0 0.00 0.00 0.00 37 1006.1
20260906221517 30 112 8.0 16.1 0.00 0.00 0.00 36 1006.2
20260906221017 30 90 4.8 14.5 0.00 0.00 0.00 36 1006.3
20260906220517 30 90 3.2 8.0 0.00 0.00 0.00 35 1006.4
20260906220017 30 112 4.8 14.5 0.00 0.00 0.00 34 1006.3
20260906215537 31 90 8.0 22.5 0.00 0.00 0.00 36 1006.7
20260906215018 30 90 9.7 20.9 0.00 0.00 0.00 35 1006.7
20260906214517 31 112 4.8 9.7 0.00 0.00 0.00 34 1006.7
20260906214017 31 135 1.6 3.2 0.00 0.00 0.00 34 1006.8
20260906213537 30 135 3.2 8.0 0.00 0.00 0.00 34 1006.8
20260906213017 30 202 4.8 8.0 0.00 0.00 0.00 34 1006.8
20260906212538 31 90 8.0 16.1 0.00 0.00 0.00 34 1007.1
20260906212017 30 112 8.0 14.5 0.00 0.00 0.00 35 1007.0
20260906211517 30 90 9.7 14.5 0.00 0.00 0.00 37 1007.1
20260906211017 30 112 11.3 16.1 0.00 0.00 0.00 35 1007.2
20260906210517 30 90 9.7 16.1 0.00 0.00 0.00 37 1007.4
20260906210017 30 112 8.0 12.9 0.00 0.00 0.00 37 1007.5
20260906205517 29 112 1.6 4.8 0.00 0.00 0.00 37 1007.6
20260906205017 29 157 4.8 9.7 0.00 0.00 0.00 36 1007.4
20260906204518 30 135 8.0 19.3 0.00 0.00 0.00 36 1007.6
20260906204017 30 112 6.4 12.9 0.00 0.00 0.00 36 1007.9
20260906203517 30 90 3.2 11.3 0.00 0.00 0.00 38 1007.8
20260906203017 30 45 3.2 8.0 0.00 0.00 0.00 33 1007.6
20260906202517 30 112 6.4 14.5 0.00 0.00 0.00 34 1007.6
20260906202037 30 112 9.7 17.7 0.00 0.00 0.00 33 1007.7
20260906201517 30 90 6.4 14.5 0.00 0.00 0.00 35 1007.8
20260906201017 30 0 4.8 14.5 0.00 0.00 0.00 36 1007.9
20260906200537 30 112 6.4 11.3 0.00 0.00 0.00 38 1007.9
20260906200016 30 90 3.2 11.3 0.00 0.00 0.00 38 1007.9
20260906195517 30 90 6.4 16.1 0.00 0.00 0.00 38 1008.0
20260906195016 29 90 4.8 11.3 0.00 0.00 0.00 38 1008.0
20260906194558 29 0 3.2 9.7 0.00 0.00 0.00 39 1008.0
20260906194037 29 0 3.2 9.7 0.00 0.00 0.00 39 1008.1
20260906193517 29 22 4.8 9.7 0.00 0.00 0.00 39 1008.2
20260906193017 30 315 4.8 8.0 0.00 0.00 0.00 39 1008.3
20260906192517 29 247 4.8 8.0 0.00 0.00 0.00 39 1008.3
20260906192016 30 315 4.8 9.7 0.00 0.00 0.00 38 1008.4
20260906191518 30 0 3.2 11.3 0.00 0.00 0.00 40 1008.5
20260906191017 29 22 6.4 12.9 0.00 0.00 0.00 41 1008.5
20260906190516 28 45 3.2 9.7 0.00 0.00 0.00 42 1008.5
20260906190037 28 112 4.8 8.0 0.00 0.00 0.00 42 1008.5
20260906185517 28 67 1.6 6.4 0.00 0.00 0.00 42 1008.7
20260906185017 27 315 4.8 9.7 0.00 0.00 0.00 42 1008.7
20260906184516 27 202 3.2 9.7 0.00 0.00 0.00 44 1008.9
20260906184017 27 292 3.2 9.7 0.00 0.00 0.00 46 1009.2
20260906183517 27 315 4.8 9.7 0.00 0.00 0.00 47 1009.2
20260906183017 27 270 4.8 9.7 0.00 0.00 0.00 48 1009.3
20260906182516 27 0 4.8 6.4 0.00 0.00 0.00 48 1009.4
20260906182017 27 292 3.2 8.0 0.00 0.00 0.00 48 1009.4
20260906181516 27 337 4.8 9.7 0.00 0.00 0.00 48 1009.5
20260906181017 27 270 3.2 8.0 0.00 0.00 0.00 51 1009.6
20260906180517 26 337 4.8 11.3 0.00 0.00 0.00 50 1009.5
20260906180018 26 112 3.2 8.0 0.00 0.00 0.00 50 1009.5
20260906175516 26 337 3.2 8.0 0.00 0.00 0.00 54 1009.9
20260906175037 26 22 3.2 8.0 0.00 0.00 0.00 53 1009.9
20260906174537 25 315 1.6 6.4 0.00 0.00 0.00 54 1010.0
20260906174017 25 337 3.2 6.4 0.00 0.00 0.00 54 1010.1
20260906173517 26 22 1.6 6.4 0.00 0.00 0.00 54 1010.2
20260906173016 26 22 3.2 8.0 0.00 0.00 0.00 57 1010.5
20260906172516 25 112 1.6 6.4 0.00 0.00 0.00 57 1010.4
20260906172036 24 180 3.2 11.3 0.00 0.00 0.00 59 1010.5
20260906171517 25 90 4.8 9.7 0.00 0.00 0.00 57 1010.5
20260906171016 25 22 3.2 8.0 0.00 0.00 0.00 58 1010.6
20260906170516 24 45 3.2 8.0 0.00 0.00 0.00 60 1010.7
20260906170037 23 112 4.8 11.3 0.00 0.00 0.00 62 1010.5
20260906165516 23 22 4.8 8.0 0.00 0.00 0.00 60 1010.6
20260906165016 24 22 3.2 8.0 0.00 0.00 0.00 63 1010.7
20260906164516 23 112 3.2 8.0 0.00 0.00 0.00 63 1010.4
20260906164036 22 90 3.2 8.0 0.00 0.00 0.00 61 1010.4
20260906163517 23 0 1.6 4.8 0.00 0.00 0.00 61 1010.8
20260906163017 23 0 1.6 3.2 0.00 0.00 0.00 63 1010.8
20260906162516 22 292 1.6 4.8 0.00 0.00 0.00 63 1010.5
20260906162036 22 45 1.6 4.8 0.00 0.00 0.00 63 1010.4
20260906161536 22 337 4.8 9.7 0.00 0.00 0.00 63 1010.6
20260906161017 22 0 3.2 8.0 0.00 0.00 0.00 64 1010.7
20260906160517 22 0 3.2 9.7 0.00 0.00 0.00 64 1010.8
20260906160016 22 0 3.2 8.0 0.00 0.00 0.00 65 1010.6
20260906155536 22 0 3.2 9.7 0.00 0.00 0.00 67 1010.6
20260906155016 22 22 3.2 8.0 0.00 0.00 0.00 67 1010.5
20260906154517 22 337 3.2 8.0 0.00 0.00 0.00 66 1010.7
20260906154017 22 22 3.2 4.8 0.00 0.00 0.00 66 1010.7
20260906153516 21 0 3.2 8.0 0.00 0.00 0.00 69 1010.6
20260906153016 21 22 4.8 9.7 0.00 0.00 0.00 68 1010.8
20260906152518 21 22 4.8 9.7 0.00 0.00 0.00 69 1010.8
20260906152016 21 0 4.8 8.0 0.00 0.00 0.00 69 1010.9
20260906151516 21 22 3.2 9.7 0.00 0.00 0.00 70 1010.9
20260906151016 21 22 4.8 9.7 0.00 0.00 0.00 71 1010.8
20260906150516 20 22 6.4 12.9 0.00 0.00 0.00 70 1010.7
20260906150016 20 337 1.6 3.2 0.00 0.00 0.00 73 1010.9
20260906145537 19 337 1.6 6.4 0.00 0.00 0.00 74 1010.8
20260906145016 19 22 4.8 8.0 0.00 0.00 0.00 74 1010.7
20260906144516 19 22 4.8 8.0 0.00 0.00 0.00 73 1011.0
20260906144016 20 0 4.8 9.7 0.00 0.00 0.00 72 1010.9
20260906143516 20 22 6.4 11.3 0.00 0.00 0.00 73 1010.9
20260906143016 20 22 8.0 12.9 0.00 0.00 0.00 74 1011.0
20260906142537 20 22 6.4 11.3 0.00 0.00 0.00 74 1010.8
20260906142036 20 0 4.8 8.0 0.00 0.00 0.00 75 1010.9
20260906141556 19 0 6.4 9.7 0.00 0.00 0.00 75 1010.9
20260906141016 19 337 3.2 6.4 0.00 0.00 0.00 78 1011.0
20260906140516 18 337 1.6 6.4 0.00 0.00 0.00 78 1010.9
20260906140016 18 315 3.2 6.4 0.00 0.00 0.00 79 1010.9
20260906135517 18 315 1.6 4.8 0.00 0.00 0.00 80 1010.9
20260906135016 17 337 1.6 4.8 0.00 0.00 0.00 81 1011.0
20260906134516 17 0.0 3.2 0.00 0.00 0.00 83 1010.8
20260906134016 16 0.0 1.6 0.00 0.00 0.00 85 1010.9
20260906133516 16 0.0 1.6 0.00 0.00 0.00 86 1010.7
20260906133016 16 292 3.2 4.8 0.00 0.00 0.00 85 1010.7
20260906132516 16 0.0 3.2 0.00 0.00 0.00 84 1010.7
20260906132016 16 0.0 3.2 0.00 0.00 0.00 84 1010.6
20260906131536 16 0.0 3.2 0.00 0.00 0.00 84 1010.7
20260906131036 16 270 1.6 3.2 0.00 0.00 0.00 84 1010.8
20260906130516 16 270 3.2 4.8 0.00 0.00 0.00 84 1010.8
20260906130016 15 315 1.6 3.2 0.00 0.00 0.00 84 1010.7
20260906125516 15 0.0 3.2 0.00 0.00 0.00 83 1010.6
20260906125016 15 0.0 3.2 0.00 0.00 0.00 82 1010.6
20260906124516 16 270 3.2 4.8 0.00 0.00 0.00 82 1010.6
20260906124018 16 0.0 4.8 0.00 0.00 0.00 82 1010.6
20260906123516 16 0.0 4.8 0.00 0.00 0.00 82 1010.5
20260906123016 16 292 1.6 3.2 0.00 0.00 0.00 81 1010.5
20260906122537 16 0.0 1.6 0.00 0.00 0.00 81 1010.5
20260906122016 16 0.0 3.2 0.00 0.00 0.00 81 1010.4
20260906121516 15 0.0 3.2 0.00 0.00 0.00 80 1010.3
20260906121016 15 0.0 3.2 0.00 0.00 0.00 80 1010.5
20260906120516 15 0.0 3.2 0.00 0.00 0.00 80 1010.4
20260906120016 15 0.0 1.6 0.00 0.00 0.00 80 1010.4
20260906115516 15 0.0 0.0 0.00 0.00 0.00 79 1010.4
20260906115016 15 0.0 1.6 0.00 0.00 0.00 78 1010.4
20260906114515 15 0.0 1.6 0.00 0.00 0.00 78 1010.4
20260906114036 15 0.0 3.2 0.00 0.00 0.00 78 1010.6
20260906113515 15 0.0 3.2 0.00 0.00 0.00 77 1010.6
20260906113016 16 0.0 0.0 0.00 0.00 0.00 76 1010.6
20260906112516 16 0.0 0.0 0.00 0.00 0.00 76 1010.6
20260906112036 16 0.0 3.2 0.00 0.00 0.00 75 1010.7
20260906111515 16 0.0 0.0 0.00 0.00 0.00 75 1010.6
20260906111016 16 0.0 1.6 0.00 0.00 0.00 74 1010.5
20260906110515 16 0.0 3.2 0.00 0.00 0.00 74 1010.5
20260906110037 15 315 1.6 3.2 0.00 0.00 0.00 75 1010.4
20260906105515 15 0.0 3.2 0.00 0.00 0.00 75 1010.5
20260906105036 15 0.0 0.0 0.00 0.00 0.00 74 1010.6
20260906104516 16 0.0 1.6 0.00 0.00 0.00 73 1010.6
20260906104016 16 0.0 0.0 0.00 0.00 0.00 72 1010.7
20260906103516 16 315 1.6 3.2 0.00 0.00 0.00 71 1010.8
20260906103015 16 315 1.6 3.2 0.00 0.00 0.00 70 1010.6
20260906102515 16 0.0 1.6 0.00 0.00 0.00 71 1010.6
20260906102015 16 0.0 0.0 0.00 0.00 0.00 71 1010.5
20260906101538 16 0.0 3.2 0.00 0.00 0.00 71 1010.7
20260906101019 16 0.0 3.2 0.00 0.00 0.00 71 1010.6
20260906100537 16 0.0 0.0 0.00 0.00 0.00 71 1010.6
20260906100019 16 0.0 0.0 0.00 0.00 0.00 72 1010.7
20260906095518 16 0.0 1.6 0.00 0.00 0.00 71 1010.8
20260906095017 16 0.0 3.2 0.00 0.00 0.00 71 1010.8
20260906094515 16 0.0 0.0 0.00 0.00 0.00 69 1010.9
20260906094019 16 0.0 0.0 0.00 0.00 0.00 68 1010.9
20260906093518 17 0.0 1.6 0.00 0.00 0.00 67 1010.7
20260906093018 17 0 1.6 4.8 0.00 0.00 0.00 67 1010.8
20260906092516 17 292 1.6 3.2 0.00 0.00 0.00 67 1010.7
20260906092018 17 315 1.6 6.4 0.00 0.00 0.00 67 1010.7
20260906091517 17 0.0 3.2 0.00 0.00 0.00 66 1010.3
20260906091019 17 292 1.6 4.8 0.00 0.00 0.00 65 1010.1
20260906090518 17 0.0 3.2 0.00 0.00 0.00 65 1010.2
20260906090018 17 337 1.6 1.6 0.00 0.00 0.00 65 1010.1
20260906085517 17 0.0 3.2 0.00 0.00 0.00 64 1010.0
20260906085018 17 0.0 1.6 0.00 0.00 0.00 62 1010.1
20260906084517 18 0.0 1.6 0.00 0.00 0.00 61 1010.0
20260906084017 18 292 1.6 3.2 0.00 0.00 0.00 60 1010.3
20260906083518 18 315 1.6 3.2 0.00 0.00 0.00 60 1010.3
20260906083018 18 0.0 3.2 0.00 0.00 0.00 60 1010.3
20260906082517 18 0.0 3.2 0.00 0.00 0.00 60 1010.3
20260906082017 18 0.0 3.2 0.00 0.00 0.00 60 1010.3
20260906081517 18 0.0 3.2 0.00 0.00 0.00 59 1010.5
20260906080518 18 337 1.6 4.8 0.00 0.00 0.00 60 1010.3
20260906080018 18 315 1.6 6.4 0.00 0.00 0.00 59 1010.3
20260906075517 19 0 1.6 4.8 0.00 0.00 0.00 59 1010.3
20260906075017 19 0 1.6 4.8 0.00 0.00 0.00 58 1010.3
20260906074517 19 0.0 3.2 0.00 0.00 0.00 57 1010.2
20260906074017 19 0 1.6 3.2 0.00 0.00 0.00 56 1010.3
20260906073517 19 0 1.6 4.8 0.00 0.00 0.00 56 1010.2
20260906073018 19 0.0 3.2 0.00 0.00 0.00 55 1010.2
20260906072518 19 270 1.6 3.2 0.00 0.00 0.00 54 1010.2
20260906072017 19 0.0 3.2 0.00 0.00 0.00 54 1010.3
20260906071517 19 0.0 3.2 0.00 0.00 0.00 54 1010.3
20260906071017 19 270 1.6 3.2 0.00 0.00 0.00 55 1010.3
20260906070557 20 0.0 3.2 0.00 0.00 0.00 53 1010.4
20260906070017 19 270 3.2 6.4 0.00 0.00 0.00 54 1010.2
20260906065537 19 0 3.2 6.4 0.00 0.00 0.00 54 1010.1
20260906065017 20 0.0 3.2 0.00 0.00 0.00 52 1010.2
20260906064517 20 0 3.2 6.4 0.00 0.00 0.00 50 1010.1
20260906064017 20 292 1.6 3.2 0.00 0.00 0.00 50 1010.2
20260906063538 20 292 1.6 3.2 0.00 0.00 0.00 49 1010.2
20260906063027 20 315 1.6 4.8 0.00 0.00 0.00 49 1010.2
20260906062638 20 292 3.2 6.4 0.00 0.00 0.00 49 1010.0
20260906062019 21 315 1.6 4.8 0.00 0.00 0.00 48 1010.2
20260906061537 21 337 1.6 4.8 0.00 0.00 0.00 47 1010.3
20260906061017 21 292 4.8 6.4 0.00 0.00 0.00 49 1010.3
20260906060518 21 270 6.4 9.7 0.00 0.00 0.00 48 1010.3
20260906060021 20 270 6.4 9.7 0.00 0.00 0.00 50 1010.5
20260906055517 20 225 3.2 8.0 0.00 0.00 0.00 50 1010.6
20260906055017 20 247 8.0 9.7 0.00 0.00 0.00 49 1010.4
20260906054516 21 202 3.2 8.0 0.00 0.00 0.00 48 1010.4
20260906054016 21 90 3.2 4.8 0.00 0.00 0.00 49 1010.3
20260906053516 21 90 3.2 4.8 0.00 0.00 0.00 48 1010.1
20260906053016 21 90 1.6 4.8 0.00 0.00 0.00 48 1010.1
20260906052537 21 0.0 3.2 0.00 0.00 0.00 48 1010.0
20260906052016 22 90 1.6 4.8 0.00 0.00 0.00 45 1010.0
20260906051516 22 0.0 3.2 0.00 0.00 0.00 45 1010.2
20260906051016 22 90 1.6 4.8 0.00 0.00 0.00 45 1010.0
20260906050516 22 0.0 3.2 0.00 0.00 0.00 44 1009.9
20260906050016 22 67 3.2 8.0 0.00 0.00 0.00 45 1009.8
20260906045536 22 67 4.8 9.7 0.00 0.00 0.00 46 1010.0
20260906045016 21 67 1.6 8.0 0.00 0.00 0.00 47 1009.8
20260906044516 21 225 3.2 6.4 0.00 0.00 0.00 47 1009.6
20260906044036 20 225 6.4 9.7 0.00 0.00 0.00 49 1009.3
20260906043516 20 247 9.7 9.7 0.00 0.00 0.00 48 1009.3
20260906043016 21 247 3.2 8.0 0.00 0.00 0.00 45 1009.2
20260906042516 22 0.0 3.2 0.00 0.00 0.00 45 1009.1
20260906042016 21 0.0 3.2 0.00 0.00 0.00 45 1009.0
20260906041516 22 0.0 3.2 0.00 0.00 0.00 45 1008.8
20260906041016 22 315 1.6 4.8 0.00 0.00 0.00 43 1008.7
20260906040517 22 270 3.2 4.8 0.00 0.00 0.00 42 1008.8
20260906040016 22 337 3.2 6.4 0.00 0.00 0.00 42 1008.4
20260906035516 22 0.0 3.2 0.00 0.00 0.00 42 1008.2
20260906035036 22 315 1.6 4.8 0.00 0.00 0.00 43 1008.1
20260906034516 22 0 3.2 6.4 0.00 0.00 0.00 43 1008.5
20260906034136 22 22 1.6 3.2 0.00 0.00 0.00 42 1008.5
20260906033516 23 292 1.6 4.8 0.00 0.00 0.00 41 1008.5
20260906033036 23 292 1.6 4.8 0.00 0.00 0.00 41 1008.5
20260906032516 23 292 3.2 4.8 0.00 0.00 0.00 40 1008.5
20260906032016 23 0 1.6 3.2 0.00 0.00 0.00 41 1008.3
20260906031515 23 0 3.2 4.8 0.00 0.00 0.00 42 1008.3
20260906031015 23 0 3.2 9.7 0.00 0.00 0.00 43 1008.3
20260906030516 23 0 3.2 8.0 0.00 0.00 0.00 42 1008.1
20260906030016 23 0 3.2 9.7 0.00 0.00 0.00 41 1008.0
20260906025516 23 337 3.2 8.0 0.00 0.00 0.00 42 1008.0
20260906025016 23 0 3.2 6.4 0.00 0.00 0.00 41 1008.0
20260906024516 24 0.0 3.2 0.00 0.00 0.00 39 1007.8
20260906024016 24 22 4.8 9.7 0.00 0.00 0.00 37 1007.7
20260906023515 23 0.0 4.8 0.00 0.00 0.00 39 1007.7
20260906023016 24 0.0 0.0 0.00 0.00 0.00 38 1007.7
20260906022516 25 0.0 0.0 0.00 0.00 0.00 37 1007.9
20260906022016 25 0.0 0.0 0.00 0.00 0.00 35 1007.7
20260906021516 26 0.0 3.2 0.00 0.00 0.00 34 1007.6
20260906021016 26 0 1.6 3.2 0.00 0.00 0.00 34 1007.3
20260906020516 26 0 4.8 8.0 0.00 0.00 0.00 34 1007.3
20260906020016 26 22 6.4 11.3 0.00 0.00 0.00 34 1007.3
20260906015516 27 337 3.2 11.3 0.00 0.00 0.00 31 1007.3
20260906015016 27 292 6.4 9.7 0.00 0.00 0.00 31 1007.3
20260906014515 27 292 8.0 12.9 0.00 0.00 0.00 31 1006.9
20260906014037 27 292 6.4 14.5 0.00 0.00 0.00 31 1006.8
20260906013518 27 292 6.4 14.5 0.00 0.00 0.00 31 1006.6
20260906013018 26 315 3.2 11.3 0.00 0.00 0.00 32 1006.5
20260906012515 26 315 1.6 6.4 0.00 0.00 0.00 31 1006.6
20260906012017 27 315 1.6 6.4 0.00 0.00 0.00 31 1006.6
20260906011537 28 337 4.8 9.7 0.00 0.00 0.00 30 1006.7
20260906011018 28 292 9.7 14.5 0.00 0.00 0.00 29 1006.5
20260906010536 28 292 9.7 14.5 0.00 0.00 0.00 29 1006.5
20260906010018 28 270 9.7 16.1 0.00 0.00 0.00 29 1006.6
20260906005517 28 270 11.3 19.3 0.00 0.00 0.00 28 1006.7
20260906005018 29 270 11.3 20.9 0.00 0.00 0.00 28 1006.7
20260906004537 29 270 11.3 19.3 0.00 0.00 0.00 28 1008.5
20260906004038 29 270 11.3 20.9 0.00 0.00 0.00 27 1006.9
20260906003517 30 292 11.3 20.9 0.00 0.00 0.00 27 1006.8
20260906003015 30 270 11.3 16.1 0.00 0.00 0.00 27 1006.9
20260906002517 30 270 11.3 16.1 0.00 0.00 0.00 27 1006.8
20260906002017 30 270 9.7 16.1 0.00 0.00 0.00 26 1006.8
20260906001517 30 270 6.4 11.3 0.00 0.00 0.00 26 1006.8
20260906001017 30 270 8.0 11.3 0.00 0.00 0.00 26 1006.8
20260906000518 30 270 6.4 14.5 0.00 0.00 0.00 26 1007.0
20260906000018 30 270 8.0 11.3 0.00 0.00 0.00 26 1007.1
20260905235518 30 270 8.0 14.5 0.00 0.00 0.00 26 1007.0
20260905235017 30 270 8.0 12.9 0.00 0.00 0.00 25 1006.9
20260905234518 30 270 6.4 9.7 0.00 0.00 0.00 26 1006.9
20260905234017 30 270 8.0 14.5 0.00 0.00 0.00 25 1006.8
20260905233517 31 270 4.8 9.7 0.00 0.00 0.00 26 1006.9
20260905233037 31 0.0 0.0 0.00 0.00 0.00 24 1006.9
20260905232517 32 270 3.2 6.4 0.00 0.00 0.00 22 1006.8
20260905232037 32 22 3.2 6.4 0.00 0.00 0.00 23 1006.7
20260905231518 32 0 4.8 8.0 0.00 0.00 0.00 23 1006.7
20260905231018 33 22 4.8 16.1 0.00 0.00 0.00 24 1006.7
20260905230517 32 112 3.2 6.4 0.00 0.00 0.00 24 1006.7
20260905230017 31 112 1.6 4.8 0.00 0.00 0.00 23 1006.6
20260905225537 31 270 3.2 6.4 0.00 0.00 0.00 24 1006.4
20260905225038 32 270 4.8 8.0 0.00 0.00 0.00 23 1006.4
20260905224518 32 270 4.8 8.0 0.00 0.00 0.00 23 1006.5
20260905224017 32 270 4.8 9.7 0.00 0.00 0.00 24 1006.7
20260905223517 32 270 4.8 11.3 0.00 0.00 0.00 21 1006.7
20260905223017 33 247 3.2 9.7 0.00 0.00 0.00 23 1006.8
20260905222517 32 315 1.6 3.2 0.00 0.00 0.00 26 1006.8